Time,TemperatureF,DewpointF,PressureIn,WindDirection,WindDirectionDegrees,WindSpeedMPH,WindSpeedGustMPH,Humidity,HourlyPrecipIn,Conditions,Clouds,dailyrainin,SoftwareType,DateUTC
2013-02-01 01:00:00,34.7,30.1,30.10,SSE,147,1.0,8.0,83,0.00,,,0.00,Wunderground v.1.15,2013-02-01 08:00:00,
2013-02-01 01:30:00,37.0,29.8,30.09,SSE,165,4.0,4.0,75,0.00,,,0.00,Wunderground v.1.15,2013-02-01 08:30:00,
2013-02-01 02:00:00,36.8,27.9,30.08,SW,223,7.0,7.0,70,0.00,,,0.00,Wunderground v.1.15,2013-02-01 09:00:00,
2013-02-01 02:30:00,36.2,27.0,30.09,SW,233,5.0,5.0,69,0.00,,,0.00,Wunderground v.1.15,2013-02-01 09:30:00,
2013-02-01 03:00:00,35.1,26.6,30.09,SSW,213,2.0,2.0,71,0.00,,,0.00,Wunderground v.1.15,2013-02-01 10:00:00,
2013-02-01 03:30:00,34.4,26.3,30.07,SSW,213,2.0,2.0,72,0.00,,,0.00,Wunderground v.1.15,2013-02-01 10:30:00,
2013-02-01 04:00:00,33.8,26.4,30.07,SSW,213,4.0,4.0,74,0.00,,,0.00,Wunderground v.1.15,2013-02-01 11:00:00,
2013-02-01 04:30:00,35.3,26.5,30.06,SW,223,6.0,8.0,70,0.00,,,0.00,Wunderground v.1.15,2013-02-01 11:30:00,
2013-02-01 05:00:00,34.8,26.0,30.08,NW,309,4.0,4.0,70,0.00,,,0.00,Wunderground v.1.15,2013-02-01 12:00:00,
2013-02-01 05:30:00,36.8,26.5,30.09,NW,315,12.0,12.0,66,0.00,,,0.00,Wunderground v.1.15,2013-02-01 12:30:00,
2013-02-01 06:00:00,38.0,26.9,30.09,WNW,298,11.0,11.0,64,0.00,,,0.00,Wunderground v.1.15,2013-02-01 13:00:00,
2013-02-01 06:30:00,37.3,27.3,30.07,WNW,300,0.0,8.0,67,0.00,,,0.00,Wunderground v.1.15,2013-02-01 13:30:00,
2013-02-01 07:30:00,33.6,25.5,30.09,WNW,286,0.0,8.0,72,0.00,,,0.00,Wunderground v.1.15,2013-02-01 14:30:00,
2013-02-01 08:00:00,33.9,25.8,30.09,WSW,250,3.0,8.0,72,0.00,,,0.00,Wunderground v.1.15,2013-02-01 15:00:00,
2013-02-01 08:30:00,32.8,25.4,30.09,WSW,242,3.0,8.0,74,0.00,,,0.00,Wunderground v.1.15,2013-02-01 15:30:00,
2013-02-01 09:00:00,33.8,24.7,30.09,SW,232,8.0,8.0,69,0.00,,,0.00,Wunderground v.1.15,2013-02-01 16:00:00,
2013-02-01 09:30:00,33.1,24.0,30.10,SW,236,8.0,8.0,69,0.00,,,0.00,Wunderground v.1.15,2013-02-01 16:30:00,
2013-02-01 10:00:00,33.4,23.6,30.11,SW,235,9.0,9.0,67,0.00,,,0.00,Wunderground v.1.15,2013-02-01 17:00:00,
2013-02-01 10:30:00,41.0,26.9,30.10,WSW,244,14.0,14.0,57,0.00,,,0.00,Wunderground v.1.15,2013-02-01 17:30:00,
2013-02-01 11:30:00,44.1,25.1,30.10,WSW,250,17.0,17.0,47,0.00,,,0.00,Wunderground v.1.15,2013-02-01 18:30:00,
2013-02-01 12:30:00,45.4,23.0,30.09,WSW,254,18.0,18.0,41,0.00,,,0.00,Wunderground v.1.15,2013-02-01 19:30:00,
2013-02-01 13:00:00,45.7,22.7,30.09,West,268,20.0,20.0,40,0.00,,,0.00,Wunderground v.1.15,2013-02-01 20:00:00,
2013-02-01 14:00:00,44.9,24.3,30.08,WNW,287,19.0,21.0,44,0.00,,,0.00,Wunderground v.1.15,2013-02-01 21:00:00,
2013-02-01 14:30:00,45.3,23.0,30.09,NW,308,18.0,18.0,41,0.00,,,0.00,Wunderground v.1.15,2013-02-01 21:30:00,
2013-02-01 15:00:00,42.8,21.8,30.10,WNW,294,19.0,19.0,43,0.00,,,0.00,Wunderground v.1.15,2013-02-01 22:00:00,
2013-02-01 15:30:00,41.3,23.1,30.11,WNW,286,14.0,15.0,48,0.00,,,0.00,Wunderground v.1.15,2013-02-01 22:30:00,
2013-02-01 16:00:00,43.7,23.2,30.12,WNW,284,16.0,20.0,44,0.00,,,0.00,Wunderground v.1.15,2013-02-01 23:00:00,
2013-02-01 16:30:00,40.8,24.1,30.13,West,266,17.0,17.0,51,0.00,,,0.00,Wunderground v.1.15,2013-02-01 23:30:00,
2013-02-01 17:00:00,38.9,23.7,30.14,WSW,257,11.0,11.0,54,0.00,,,0.00,Wunderground v.1.15,2013-02-02 00:00:00,
2013-02-01 17:30:00,34.1,22.4,30.16,WSW,254,0.0,8.0,62,0.00,,,0.00,Wunderground v.1.15,2013-02-02 00:30:00,
2013-02-01 18:00:00,33.1,22.2,30.16,WSW,238,7.0,8.0,64,0.00,,,0.00,Wunderground v.1.15,2013-02-02 01:00:00,
2013-02-01 18:30:00,31.2,21.2,30.17,SW,232,8.0,8.0,66,0.00,,,0.00,Wunderground v.1.15,2013-02-02 01:30:00,
2013-02-01 19:00:00,30.8,21.5,30.18,WSW,246,9.0,9.0,68,0.00,,,0.00,Wunderground v.1.15,2013-02-02 02:00:00,
2013-02-01 19:30:00,30.7,21.0,30.19,SW,234,11.0,11.0,67,0.00,,,0.00,Wunderground v.1.15,2013-02-02 02:30:00,
2013-02-01 20:00:00,28.5,20.0,30.20,SW,234,7.0,8.0,70,0.00,,,0.00,Wunderground v.1.15,2013-02-02 03:00:00,
2013-02-01 20:30:00,26.5,19.0,30.21,SW,230,8.0,10.0,73,0.00,,,0.00,Wunderground v.1.15,2013-02-02 03:30:00,
2013-02-01 21:00:00,26.3,19.1,30.22,SW,217,8.0,10.0,74,0.00,,,0.00,Wunderground v.1.15,2013-02-02 04:00:00,
2013-02-01 21:30:00,25.8,19.3,30.22,SSW,212,8.0,8.0,76,0.00,,,0.00,Wunderground v.1.15,2013-02-02 04:30:00,
2013-02-01 22:00:00,26.7,19.5,30.23,SSW,211,11.0,11.0,74,0.00,,,0.00,Wunderground v.1.15,2013-02-02 05:00:00,
2013-02-01 22:30:00,26.8,19.6,30.23,SW,220,10.0,10.0,74,0.00,,,0.00,Wunderground v.1.15,2013-02-02 05:30:00,
2013-02-01 23:00:00,25.9,19.1,30.24,SW,225,10.0,11.0,75,0.00,,,0.00,Wunderground v.1.15,2013-02-02 06:00:00,
2013-02-01 23:30:00,26.3,19.5,30.24,SSW,210,11.0,11.0,75,0.00,,,0.00,Wunderground v.1.15,2013-02-02 06:30:00,